User: anonymous
Location: Muenchen
(48.1800°N, 11.5800°E)
Time: 14:29:37
(UTC+02:00)
Language:

ISS - Orbit

View from above orbital plane
View from above orbital plane
View from above satellite
View from above satellite

Ground track
Ground track

The orbit data is extracted from the following two-line orbital elements,

1 25544U 98067A   14107.38514038  .00021568  00000-0  38653-3 0  1021
2 25544 051.6497 040.9013 0003672 296.8693 160.8492 15.49873571881896
Epoch (UTC): 17 April 2014 09:14:36
Eccentricity: 0.0003672
inclination: 51.6497°
perigee height: 414 km
apogee height: 419 km
right ascension of ascending node: 40.9013°
argument of perigee: 296.8693°
revolutions per day: 15.49873571
mean anomaly at epoch: 160.8492°
orbit number at epoch: 88189

The dashed part of the orbit path shows where the satellite is in the earth's shadow,  

DLR